This is the latest recevied weather packets stored in our database for station/object W1MWS-13. If no packets are shown the sender has not sent any weather packets the latest 10 day(s).
| Time | Temp. | Humidity | Pressure | Rain* | Wind** | Luminosity | Snow |
|---|---|---|---|---|---|---|---|
| 1777391002 | 20.56° C | 48% | 1022.4 hPa | 0 mm | - | - | - |
| 1777390402 | 20.56° C | 49% | 1022.5 hPa | 0 mm | - | - | - |
| 1777388912 | 19.44° C | 50% | 1023 hPa | 0 mm | - | - | - |
| 1777388312 | 18.89° C | 49% | 1023 hPa | 0 mm | - | - | - |
| 1777387131 | 18.33° C | 53% | 1023 hPa | 0 mm | - | - | - |
| 1777386802 | 17.22° C | 55% | 1023 hPa | 0 mm | - | - | - |
| 1777385602 | 17.22° C | 55% | 1023.1 hPa | 0 mm | - | - | - |
| 1777385312 | 17.22° C | 54% | 1023.1 hPa | 0 mm | - | - | - |
| 1777383196 | 15.56° C | 59% | 1023.1 hPa | 0 mm | - | - | - |
| 1777381711 | 15° C | 62% | - | 0 mm | - | - | - |
| 1777379603 | 12.22° C | 70% | 1023.9 hPa | 0 mm | - | - | - |
| 1777378712 | 12.78° C | 73% | 1023.9 hPa | 0 mm | - | - | - |
| 1777378403 | 12.78° C | 74% | 1023.9 hPa | 0 mm | - | - | - |
| 1777377500 | 11.67° C | 80% | 1023.9 hPa | 0 mm | - | - | - |
| 1777373301 | 6.11° C | 99% | 1024.1 hPa | 0 mm | - | - | - |
| 1777371198 | 3.89° C | 99% | 1024 hPa | 0 mm | - | - | - |
| 1777370300 | 3.33° C | 99% | 1023.9 hPa | 0 mm | - | - | - |
| 1777369700 | 3.33° C | 99% | 1023.9 hPa | 0 mm | - | - | - |
| 1777369101 | 3.33° C | 99% | 1024 hPa | 0 mm | - | - | - |
| 1777368810 | 3.89° C | 99% | 1024 hPa | 0 mm | - | - | - |
| 1777364908 | 4.44° C | 99% | 1023.1 hPa | 0 mm | - | - | - |
| 1777364032 | 5° C | 99% | 1023.2 hPa | 0 mm | - | - | - |
| 1777363406 | 5° C | 99% | 1023.3 hPa | 0 mm | - | - | - |
| 1777362505 | 5° C | 99% | 1023.1 hPa | 0 mm | - | - | - |
| 1777362206 | 5° C | 99% | 1023.2 hPa | 0 mm | - | - | - |
* Rain latest hour (hover to see other rain measurements)
** Current wind speed in m/s (hover to see current wind gust speed)